Vorticity
nan nan nan nan nan nan nan nan nan nan nan nan nan nan nan nan nan nan nan nan nan nan nan nan nan nan nan nan nan nan nan nan nan nan nan nan nan nan nan nan nan nan nan nan
nan 4 10 8 6 7 9 8 6 2 5 7 7 7 7 15 16 20 20 15 11 9 10 14 20 19 15 11 11 11 8 6 3 4 7 9 10 9 8 7 8 9 8 nan
nan -0 6 9 9 11 8 8 8 8 14 8 8 19 22 19 18 15 10 8 7 8 9 12 16 18 16 14 13 11 11 8 7 4 5 7 7 9 8 8 9 10 7 nan
nan 14 10 9 7 12 10 18 12 12 11 9 6 10 21 18 4 5 4 4 5 6 8 9 9 12 15 16 16 13 11 10 9 7 7 6 4 4 7 9 9 10 9 nan
nan 16 19 17 12 8 11 16 24 16 8 13 7 7 11 9 3 2 1 3 5 6 6 7 9 10 12 15 15 15 13 10 8 8 7 6 5 7 11 11 9 7 8 nan
nan 0 8 10 12 14 16 11 12 13 14 14 16 4 17 19 8 2 0 2 5 6 7 8 8 8 10 13 14 16 13 12 10 8 8 7 8 8 8 9 7 8 8 nan
nan 8 6 8 4 14 6 1 6 9 5 8 20 5 7 13 13 8 3 3 5 6 7 8 8 9 8 9 12 14 15 12 11 9 8 9 12 9 8 6 7 8 6 nan
nan 21 26 13 8 8 8 -2 -4 1 1 4 9 16 8 4 4 5 5 5 5 6 7 6 8 9 8 9 10 11 15 14 13 11 9 10 9 8 10 10 8 7 9 nan
nan 4 6 16 15 6 10 12 2 3 6 10 4 6 10 7 3 3 4 5 5 6 7 8 9 9 8 8 10 12 11 13 14 11 11 11 9 10 10 10 9 10 10 nan
nan 14 5 9 7 9 9 12 18 14 16 11 7 4 10 13 0 1 3 5 6 7 8 9 9 10 10 10 10 11 12 12 11 13 14 13 10 10 11 10 10 9 9 nan
nan 17 10 5 12 14 11 5 -1 9 9 11 12 8 17 20 3 5 5 6 7 8 9 10 10 10 10 10 11 12 13 13 14 15 13 11 12 12 11 10 10 10 10 nan
nan 17 17 -1 -3 7 10 15 14 12 14 7 12 13 14 8 5 7 7 8 9 8 9 9 9 10 11 11 11 10 12 13 15 15 13 10 11 11 11 11 11 11 9 nan
nan 17 15 16 11 8 5 3 7 8 16 10 8 11 8 4 3 5 6 8 9 8 9 10 10 10 9 9 10 11 12 13 13 14 13 12 10 10 11 11 11 10 9 nan
nan 6 8 13 12 14 19 16 11 3 -2 8 9 15 11 2 2 5 8 9 9 8 8 8 8 9 9 10 10 11 12 13 15 14 13 13 12 11 11 10 8 9 10 nan
nan 5 9 5 9 13 12 22 25 12 4 7 8 14 16 4 6 7 7 7 7 8 8 9 10 10 9 9 10 11 12 14 15 14 13 11 9 8 9 10 11 11 9 nan
nan 9 11 9 8 10 10 11 13 23 24 16 12 10 8 10 6 5 7 9 9 7 7 8 9 10 10 10 10 11 12 13 15 14 11 9 9 9 8 8 8 8 9 nan
nan 12 13 12 10 10 15 13 21 19 17 19 20 16 11 7 8 6 7 7 8 8 8 8 9 9 10 10 12 13 13 12 12 10 9 10 9 9 9 10 10 9 9 nan
nan 8 8 10 14 13 8 14 18 6 6 16 16 8 9 13 12 3 5 9 8 8 9 10 9 9 10 11 13 13 13 12 10 10 10 10 10 9 9 9 9 9 9 nan
nan 8 9 10 9 13 2 -3 3 1 5 7 9 7 9 17 10 2 4 9 10 10 10 11 10 11 11 12 12 12 11 11 11 10 10 10 11 11 10 10 10 9 9 nan
nan 11 7 5 10 9 -2 -2 10 18 6 1 10 8 10 19 12 1 8 12 11 12 11 11 12 12 10 10 12 12 11 10 9 9 10 10 11 11 11 11 10 9 10 nan
nan 12 14 8 10 3 -0 20 25 14 2 6 9 10 13 14 9 7 13 11 11 10 10 11 11 10 10 11 12 11 10 9 9 10 9 9 10 10 10 10 10 10 11 nan
nan 12 15 17 20 -3 8 31 18 13 9 9 8 10 11 9 10 10 8 13 14 11 11 10 10 9 10 11 12 10 9 8 9 9 10 9 9 10 10 10 10 10 10 nan
nan 11 11 14 17 7 11 12 10 14 9 8 10 10 11 10 9 9 10 10 11 15 15 10 9 10 9 10 11 11 9 9 9 9 10 9 10 10 12 12 10 10 10 nan
nan 9 19 12 6 2 8 6 7 10 10 10 10 9 10 10 10 10 10 10 9 11 13 13 12 10 11 10 10 11 10 10 10 10 10 10 10 12 11 10 12 11 11 nan
nan 9 16 12 1 5 6 7 9 9 8 9 10 9 10 11 9 10 10 10 10 10 10 11 12 11 10 10 11 11 11 10 10 10 10 10 10 11 11 10 9 9 8 nan
nan nan nan nan nan nan nan nan nan nan nan nan nan nan nan nan nan nan nan nan nan nan nan nan nan nan nan nan nan nan nan nan nan nan nan nan nan nan nan nan nan nan nan nan
CAPE
0 0 0 0 0 0 0 0 0 0 0 0 0 0 0 0 0 0 0 0 0 0 0 0 0 0 0 0 0 0 0 0 0 0 0 0 0 0 0 0 0 0 0 0
0 0 0 0 0 0 0 0 0 0 0 0 0 0 0 0 0 0 0 0 0 0 0 0 0 0 0 0 1 0 0 0 0 0 0 0 0 0 0 0 0 0 0 0
0 0 0 0 0 0 0 0 0 0 0 0 0 0 0 0 0 0 0 0 0 0 0 0 0 0 0 0 4 3 1 0 0 0 0 0 0 0 0 0 0 0 0 0
0 0 0 0 0 0 0 0 0 0 0 0 0 0 0 0 0 0 0 0 0 0 0 0 0 0 3 2 3 3 3 2 0 0 0 0 0 0 0 0 0 0 0 0
0 0 0 0 0 0 0 0 0 0 0 0 0 0 0 0 0 0 0 0 0 0 0 0 0 0 1 3 4 2 3 1 0 0 0 0 0 0 0 0 0 0 0 0
0 0 0 0 0 0 0 0 0 0 0 0 0 0 0 0 0 0 0 0 0 0 0 0 0 0 0 1 2 3 2 2 0 0 0 0 0 0 0 0 0 0 0 0
0 0 0 0 0 0 0 0 0 0 0 0 0 0 0 0 0 0 0 0 0 0 0 0 0 0 0 0 0 0 2 2 1 0 0 0 0 0 0 0 0 0 0 0
0 0 0 0 0 0 0 0 0 0 0 0 0 0 0 0 0 0 0 0 0 0 0 0 0 0 0 0 0 0 0 1 2 0 0 0 0 0 0 0 0 0 0 0
0 0 0 0 0 0 0 0 0 0 0 1 0 0 0 0 0 0 0 0 0 0 0 0 0 0 0 0 0 0 0 0 1 1 1 0 0 0 0 0 0 0 0 0
0 0 0 0 0 0 0 0 0 0 0 0 0 0 0 0 0 0 0 0 0 0 0 0 0 0 0 0 0 0 0 0 0 0 0 0 0 0 0 0 0 0 0 0
1 32 0 0 0 0 0 0 0 4 6 0 0 0 0 0 0 0 0 0 0 0 0 0 0 0 0 0 0 0 0 0 0 0 0 0 0 0 0 0 0 0 0 0
15 25 41 27 15 0 0 0 18 67 11 37 34 1 0 0 0 0 0 0 0 0 0 0 0 0 0 0 0 0 0 0 0 0 0 0 0 0 0 0 0 0 0 0
54 29 29 2 4 22 0 0 6 20 2 5 21 0 0 0 0 0 0 0 0 0 0 0 0 0 0 0 0 0 0 0 0 0 0 0 0 0 0 0 0 0 0 0
51 29 46 60 18 0 21 0 1 39 30 2 0 0 0 0 0 0 0 0 0 0 0 0 0 0 0 0 0 0 0 0 0 0 0 0 0 0 0 0 0 0 0 0
42 64 23 7 15 5 14 7 18 42 8 15 0 0 0 0 0 0 0 0 0 0 0 0 0 0 0 1 2 0 0 0 0 0 0 0 0 0 0 0 1 0 0 0
44 5 12 2 1 5 0 0 7 16 16 5 0 0 2 0 0 0 0 0 0 0 0 0 0 0 1 3 2 2 2 1 0 1 1 4 5 3 4 4 3 1 0 0
109 75 42 12 8 15 15 0 0 0 0 0 0 2 2 2 1 2 2 1 1 1 1 2 2 3 1 1 1 5 12 8 3 4 7 6 5 4 4 5 5 5 6 4
108 114 60 14 18 18 1 0 0 0 1 2 1 5 5 4 1 3 4 5 4 4 4 4 4 3 3 4 8 8 6 7 5 4 4 4 5 6 7 5 6 5 4 4
53 43 25 20 5 0 1 0 2 2 1 4 3 2 1 3 2 1 4 4 3 2 2 1 1 2 2 5 10 8 9 5 4 6 7 8 7 6 5 4 2 3 4 4
0 4 61 35 62 28 0 0 0 1 2 4 3 2 1 1 2 4 8 5 3 3 2 1 3 2 3 1 6 1 3 2 3 3 2 3 4 4 3 5 5 5 6 6
5 6 6 65 101 0 2 1 0 1 0 5 5 3 3 3 4 8 15 5 4 4 2 3 1 1 2 4 3 1 1 0 1 1 1 2 2 2 3 3 4 5 5 6
0 0 0 0 8 0 1 0 0 4 4 3 5 4 3 3 3 4 1 3 9 2 1 2 3 2 3 2 3 0 0 1 1 1 1 1 1 3 4 3 5 4 6 4
0 1 1 0 1 4 4 4 5 6 4 6 4 6 6 4 4 2 3 1 2 14 3 2 2 2 0 3 3 1 0 1 0 1 0 1 1 4 9 5 6 8 6 7
1 0 2 0 1 1 1 2 4 5 5 6 6 5 3 3 3 1 1 1 2 2 12 5 6 4 0 0 0 1 1 0 0 0 1 1 0 2 2 8 9 7 3 3
0 0 0 1 0 0 0 3 3 4 3 3 4 5 3 2 2 1 1 1 3 3 2 1 1 0 0 0 0 0 0 0 0 0 0 1 3 1 3 2 4 4 5 3
6 3 2 3 2 1 4 3 2 2 3 2 0 0 0 0 0 0 0 1 4 1 1 1 0 1 1 0 0 0 0 0 0 0 0 0 1 1 1 1 1 2 3 4